�������l�o���
Date,Time,MP-1(��Sv/h),MP-2(��Sv/h),MP-3(��Sv/h),MP-4(��Sv/h),MP-5(��Sv/h),MP-6(��Sv/h),MP-7(��Sv/h),MP-8(��Sv/h),����,����(m/s),���J
2023/01/09,00:00,0.573,0.828,0.517,1.059,0.728,0.326,0.586,0.558,��,6.1,��
2023/01/09,00:10,0.572,0.826,0.517,1.059,0.730,0.326,0.587,0.558,��,5.8,��
2023/01/09,00:20,0.571,0.826,0.517,1.059,0.730,0.325,0.589,0.560,���k��,6.1,��
2023/01/09,00:30,0.572,0.827,0.517,1.060,0.729,0.325,0.588,0.557,���k��,5.8,��
2023/01/09,00:40,0.570,0.827,0.516,1.059,0.729,0.325,0.587,0.557,���k��,5.0,��
2023/01/09,00:50,0.571,0.827,0.517,1.059,0.729,0.324,0.587,0.557,���k��,5.3,��
2023/01/09,01:00,0.570,0.826,0.519,1.062,0.728,0.325,0.588,0.559,���k��,5.8,��
2023/01/09,01:10,0.572,0.824,0.517,1.060,0.730,0.325,0.587,0.557,���k��,6.6,��
2023/01/09,01:20,0.571,0.826,0.518,1.062,0.729,0.325,0.588,0.558,��,5.0,��
2023/01/09,01:30,0.572,0.827,0.517,1.059,0.730,0.324,0.588,0.557,��,4.6,��
2023/01/09,01:40,0.572,0.825,0.517,1.060,0.730,0.326,0.587,0.558,���쐼,3.9,��
2023/01/09,01:50,0.571,0.825,0.517,1.060,0.729,0.325,0.589,0.558,���쐼,4.1,��
2023/01/09,02:00,0.570,0.825,0.517,1.060,0.730,0.325,0.588,0.559,���쐼,3.5,��
2023/01/09,02:10,0.572,0.825,0.518,1.059,0.730,0.324,0.587,0.558,���쐼,3.8,��
2023/01/09,02:20,0.570,0.825,0.518,1.060,0.729,0.324,0.586,0.558,��,3.3,��
2023/01/09,02:30,0.572,0.825,0.517,1.060,0.727,0.324,0.587,0.557,��,2.5,��
2023/01/09,02:40,0.572,0.827,0.518,1.058,0.730,0.325,0.588,0.557,��,3.4,��
2023/01/09,02:50,0.570,0.824,0.518,1.060,0.730,0.325,0.586,0.558,��,3.2,��
2023/01/09,03:00,0.570,0.825,0.517,1.060,0.731,0.325,0.587,0.558,���쐼,4.1,��
2023/01/09,03:10,0.572,0.827,0.518,1.060,0.731,0.325,0.587,0.557,���쐼,4.9,��
2023/01/09,03:20,0.570,0.827,0.518,1.063,0.732,0.325,0.587,0.558,�쐼,6.1,��
2023/01/09,03:30,0.570,0.828,0.519,1.060,0.731,0.324,0.588,0.558,�쐼,6.0,�L
2023/01/09,03:40,0.572,0.826,0.518,1.058,0.729,0.325,0.588,0.558,���쐼,6.3,�L
2023/01/09,03:50,0.572,0.826,0.517,1.058,0.731,0.327,0.587,0.558,���쐼,6.0,�L
2023/01/09,04:00,0.573,0.825,0.518,1.060,0.730,0.326,0.587,0.558,���쐼,5.5,��
2023/01/09,04:10,0.572,0.825,0.517,1.059,0.728,0.324,0.588,0.558,���쐼,5.6,�L
2023/01/09,04:20,0.572,0.825,0.519,1.057,0.731,0.326,0.588,0.557,���쐼,6.3,�L
2023/01/09,04:30,0.571,0.824,0.518,1.059,0.730,0.325,0.587,0.559,���쐼,6.6,�L
2023/01/09,04:40,0.572,0.825,0.518,1.060,0.731,0.326,0.587,0.560,���쐼,5.8,�L
2023/01/09,04:50,0.572,0.826,0.521,1.063,0.731,0.325,0.587,0.560,���쐼,6.3,�L
2023/01/09,05:00,0.572,0.825,0.517,1.060,0.731,0.326,0.588,0.558,���쐼,7.1,�L
2023/01/09,05:10,0.572,0.825,0.518,1.059,0.730,0.326,0.587,0.558,���쐼,6.9,��
2023/01/09,05:20,0.572,0.825,0.518,1.059,0.730,0.326,0.586,0.560,���쐼,4.9,��
2023/01/09,05:30,0.571,0.824,0.518,1.062,0.728,0.326,0.587,0.558,���쐼,4.7,��
2023/01/09,05:40,0.571,0.825,0.518,1.060,0.729,0.324,0.588,0.559,���쐼,6.1,��
2023/01/09,05:50,0.573,0.827,0.518,1.061,0.730,0.326,0.588,0.558,�쐼,6.9,�L
2023/01/09,06:00,0.572,0.826,0.519,1.057,0.728,0.326,0.587,0.557,���쐼,6.9,�L
2023/01/09,06:10,0.572,0.825,0.518,1.058,0.732,0.327,0.588,0.559,���쐼,6.3,�L
2023/01/09,06:20,0.573,0.826,0.518,1.058,0.730,0.326,0.586,0.559,�쐼,5.8,��
2023/01/09,06:30,0.573,0.827,0.519,1.060,0.731,0.325,0.586,0.557,��쐼,5.6,�L
2023/01/09,06:40,0.571,0.826,0.517,1.059,0.729,0.325,0.588,0.557,�쐼,7.4,��
2023/01/09,06:50,0.572,0.827,0.517,1.060,0.731,0.327,0.588,0.559,�쐼,7.1,��
2023/01/09,07:00,0.571,0.826,0.518,1.059,0.732,0.324,0.588,0.558,�쐼,7.4,��
2023/01/09,07:10,0.573,0.826,0.519,1.061,0.731,0.325,0.587,0.560,�쐼,7.2,��
2023/01/09,07:20,0.574,0.827,0.517,1.062,0.730,0.327,0.589,0.558,�쐼,7.5,��
2023/01/09,07:30,0.570,0.826,0.517,1.059,0.729,0.327,0.588,0.559,���쐼,6.9,�L
2023/01/09,07:40,0.571,0.826,0.518,1.059,0.731,0.325,0.588,0.559,���쐼,7.2,��
2023/01/09,07:50,0.571,0.826,0.519,1.059,0.731,0.325,0.589,0.559,���쐼,6.1,��
2023/01/09,08:00,0.573,0.825,0.519,1.059,0.730,0.326,0.588,0.559,���쐼,5.3,��
2023/01/09,08:10,0.573,0.826,0.517,1.058,0.730,0.324,0.589,0.558,���쐼,4.6,��
2023/01/09,08:20,0.574,0.823,0.516,1.058,0.732,0.325,0.588,0.557,���쐼,4.4,��
2023/01/09,08:30,0.573,0.825,0.517,1.058,0.728,0.325,0.590,0.558,�쐼,3.1,��
2023/01/09,08:40,0.574,0.825,0.519,1.062,0.731,0.326,0.589,0.558,�쐼,3.9,��
2023/01/09,08:50,0.573,0.824,0.519,1.060,0.729,0.325,0.588,0.559,�쐼,3.5,��
2023/01/09,09:00,0.573,0.826,0.519,1.059,0.731,0.325,0.588,0.558,�쐼,3.8,��
2023/01/09,09:10,0.572,0.825,0.518,1.059,0.731,0.327,0.589,0.558,���쐼,4.7,��
2023/01/09,09:20,0.573,0.825,0.518,1.059,0.730,0.326,0.588,0.557,���쐼,4.7,�L
2023/01/09,09:30,0.575,0.825,0.520,1.061,0.733,0.326,0.588,0.559,���쐼,5.3,�L
2023/01/09,09:40,0.574,0.825,0.519,1.062,0.731,0.326,0.589,0.558,���쐼,5.5,�L
2023/01/09,09:50,0.575,0.826,0.518,1.060,0.731,0.326,0.586,0.559,�쐼,5.0,�L
2023/01/09,10:00,0.574,0.825,0.520,1.060,0.732,0.325,0.588,0.559,���쐼,5.8,�L
2023/01/09,10:10,0.574,0.827,0.519,1.058,0.732,0.326,0.586,0.559,���쐼,5.5,�L
2023/01/09,10:20,0.574,0.826,0.520,1.061,0.732,0.325,0.587,0.560,���쐼,5.5,��
2023/01/09,10:30,0.572,0.825,0.518,1.062,0.732,0.326,0.588,0.560,���쐼,5.8,��
2023/01/09,10:40,0.573,0.825,0.518,1.059,0.733,0.326,0.590,0.559,���k��,6.4,��
2023/01/09,10:50,0.575,0.826,0.518,1.061,0.733,0.327,0.586,0.558,��,6.0,��
2023/01/09,11:00,0.573,0.825,0.519,1.060,0.732,0.326,0.587,0.559,���k��,4.1,��
2023/01/09,11:10,0.576,0.826,0.520,1.061,0.730,0.327,0.588,0.560,���k��,3.2,��
2023/01/09,11:20,0.575,0.828,0.519,1.062,0.732,0.326,0.587,0.560,��,2.2,��
2023/01/09,11:30,0.575,0.827,0.519,1.064,0.731,0.327,0.587,0.561,���쐼,1.9,��
2023/01/09,11:40,0.576,0.828,0.520,1.061,0.732,0.326,0.588,0.559,��쐼,1.6,��
2023/01/09,11:50,0.574,0.827,0.519,1.062,0.733,0.327,0.587,0.559,�쐼,1.3,��
2023/01/09,12:00,0.575,0.827,0.520,1.062,0.732,0.326,0.588,0.559,-,CALM,��
2023/01/09,12:10,0.574,0.826,0.520,1.061,0.732,0.327,0.588,0.560,�k��,0.5,��
2023/01/09,12:20,0.575,0.824,0.520,1.060,0.733,0.328,0.589,0.559,��쓌,0.8,��
2023/01/09,12:30,0.576,0.826,0.523,1.060,0.733,0.327,0.586,0.559,��,1.1,��
2023/01/09,12:40,0.575,0.827,0.522,1.061,0.733,0.327,0.587,0.560,���k��,1.0,��
2023/01/09,12:50,0.574,0.825,0.520,1.060,0.733,0.329,0.588,0.559,�쐼,2.4,��
2023/01/09,13:00,0.576,0.824,0.521,1.062,0.734,0.328,0.589,0.560,���쐼,5.3,��
2023/01/09,13:10,0.575,0.825,0.522,1.062,0.733,0.327,0.589,0.559,���쐼,6.0,��
2023/01/09,13:20,0.576,0.824,0.520,1.059,0.733,0.327,0.590,0.558,���쐼,5.8,��
2023/01/09,13:30,0.576,0.826,0.521,1.064,0.733,0.328,0.589,0.558,�쐼,4.7,��
2023/01/09,13:40,0.575,0.825,0.520,1.061,0.733,0.328,0.589,0.558,��쓌,5.3,��
2023/01/09,13:50,0.575,0.824,0.520,1.063,0.733,0.328,0.588,0.558,��쓌,3.5,��
2023/01/09,14:00,0.577,0.824,0.520,1.061,0.731,0.329,0.588,0.558,��,3.6,��
2023/01/09,14:10,0.574,0.826,0.521,1.061,0.734,0.328,0.588,0.559,��,2.1,��
2023/01/09,14:20,0.577,0.827,0.521,1.062,0.732,0.328,0.589,0.560,��쐼,2.0,��
2023/01/09,14:30,0.577,0.830,0.520,1.061,0.734,0.328,0.587,0.560,���쐼,1.4,��
2023/01/09,14:40,0.576,0.829,0.520,1.062,0.733,0.329,0.588,0.560,���k��,1.8,��
2023/01/09,14:50,0.578,0.828,0.521,1.063,0.733,0.327,0.590,0.560,�k��,2.1,��
2023/01/09,15:00,0.578,0.827,0.519,1.063,0.734,0.328,0.589,0.560,��,2.3,��
2023/01/09,15:10,0.577,0.830,0.520,1.063,0.732,0.328,0.589,0.561,���쐼,4.1,��
2023/01/09,15:20,0.577,0.828,0.521,1.063,0.734,0.327,0.590,0.562,���쐼,2.0,��
2023/01/09,15:30,0.576,0.828,0.521,1.061,0.734,0.328,0.589,0.560,��,2.3,��
2023/01/09,15:40,0.575,0.826,0.519,1.060,0.733,0.328,0.589,0.559,��,1.7,��
2023/01/09,15:50,0.577,0.827,0.521,1.063,0.733,0.327,0.589,0.558,��,1.7,��
2023/01/09,16:00,0.577,0.828,0.522,1.063,0.731,0.328,0.591,0.562,��,1.1,��
2023/01/09,16:10,0.576,0.828,0.520,1.061,0.734,0.328,0.590,0.560,���쐼,1.2,��
2023/01/09,16:20,0.577,0.828,0.520,1.062,0.733,0.327,0.590,0.559,��쐼,1.3,��
2023/01/09,16:30,0.576,0.829,0.521,1.061,0.733,0.328,0.589,0.562,��쓌,1.0,��
2023/01/09,16:40,0.576,0.830,0.523,1.061,0.732,0.329,0.591,0.559,��,1.1,��
2023/01/09,16:50,0.575,0.830,0.521,1.060,0.733,0.328,0.589,0.561,�쐼,1.2,��
2023/01/09,17:00,0.576,0.829,0.520,1.062,0.734,0.328,0.589,0.560,�쐼,3.1,��
2023/01/09,17:10,0.578,0.828,0.521,1.062,0.735,0.327,0.589,0.558,�쐼,2.4,��
2023/01/09,17:20,0.576,0.829,0.520,1.062,0.733,0.328,0.590,0.561,���쐼,2.6,��
2023/01/09,17:30,0.576,0.828,0.522,1.063,0.733,0.328,0.590,0.559,���쐼,2.7,��
2023/01/09,17:40,0.578,0.830,0.520,1.061,0.734,0.327,0.589,0.559,��,3.0,��
2023/01/09,17:50,0.576,0.829,0.520,1.064,0.732,0.327,0.589,0.560,���쐼,3.8,��
2023/01/09,18:00,0.577,0.828,0.519,1.064,0.733,0.328,0.589,0.560,���쐼,4.2,��
2023/01/09,18:10,0.575,0.830,0.521,1.064,0.734,0.328,0.589,0.559,�쐼,5.8,��
2023/01/09,18:20,0.576,0.828,0.520,1.066,0.733,0.327,0.589,0.560,���쐼,8.3,��
2023/01/09,18:30,0.575,0.828,0.521,1.064,0.735,0.328,0.590,0.560,��,6.0,��
2023/01/09,18:40,0.577,0.830,0.520,1.062,0.734,0.327,0.589,0.560,��,5.5,��
2023/01/09,18:50,0.576,0.828,0.519,1.061,0.733,0.328,0.588,0.559,���k��,5.8,��
2023/01/09,19:00,0.576,0.830,0.519,1.062,0.731,0.326,0.590,0.560,��,6.6,��
2023/01/09,19:10,0.575,0.829,0.522,1.065,0.733,0.327,0.590,0.560,��,7.7,��
2023/01/09,19:20,0.573,0.829,0.521,1.062,0.733,0.327,0.590,0.559,��,7.8,��
2023/01/09,19:30,0.575,0.829,0.521,1.061,0.732,0.329,0.591,0.560,���쐼,8.6,��
2023/01/09,19:40,0.575,0.830,0.520,1.062,0.734,0.328,0.590,0.560,���쐼,7.5,��
2023/01/09,19:50,0.576,0.828,0.520,1.064,0.734,0.329,0.588,0.560,��,6.9,��
2023/01/09,20:00,0.575,0.828,0.521,1.061,0.733,0.327,0.592,0.559,��,4.4,��
2023/01/09,20:10,0.576,0.828,0.520,1.062,0.732,0.328,0.590,0.560,��,3.8,��
2023/01/09,20:20,0.576,0.829,0.520,1.064,0.733,0.327,0.591,0.560,���k��,4.5,��
2023/01/09,20:30,0.576,0.830,0.520,1.063,0.735,0.327,0.590,0.559,�k��,3.4,��
2023/01/09,20:40,0.575,0.828,0.519,1.063,0.733,0.329,0.591,0.560,�k��,4.9,��
2023/01/09,20:50,0.575,0.829,0.520,1.063,0.733,0.327,0.590,0.559,���k��,6.0,��
2023/01/09,21:00,0.576,0.831,0.520,1.061,0.731,0.327,0.590,0.560,���k��,5.8,��
2023/01/09,21:10,0.577,0.829,0.519,1.063,0.734,0.327,0.590,0.558,���k��,5.0,��
2023/01/09,21:20,0.574,0.829,0.519,1.061,0.732,0.328,0.591,0.560,�k��,5.8,��
2023/01/09,21:30,0.573,0.827,0.519,1.062,0.731,0.326,0.590,0.560,���k��,5.8,��
2023/01/09,21:40,0.576,0.828,0.522,1.062,0.734,0.327,0.591,0.560,�k��,6.0,��
2023/01/09,21:50,0.574,0.828,0.519,1.062,0.734,0.326,0.590,0.558,�k��,6.7,��
2023/01/09,22:00,0.575,0.829,0.520,1.063,0.735,0.326,0.591,0.559,�k��,7.7,��
2023/01/09,22:10,0.573,0.829,0.520,1.061,0.733,0.326,0.591,0.560,�k��,6.9,��
2023/01/09,22:20,0.572,0.829,0.520,1.064,0.734,0.327,0.589,0.561,�k��,8.0,��
2023/01/09,22:30,0.575,0.829,0.521,1.063,0.732,0.327,0.591,0.558,�k��,7.2,��
2023/01/09,22:40,0.576,0.831,0.519,1.060,0.731,0.326,0.591,0.559,�k��,8.8,��
2023/01/09,22:50,0.574,0.828,0.520,1.061,0.733,0.328,0.588,0.559,�k��,9.1,��
2023/01/09,23:00,0.574,0.828,0.519,1.061,0.733,0.328,0.590,0.560,�k�k��,8.8,��
2023/01/09,23:10,0.572,0.828,0.519,1.063,0.733,0.326,0.590,0.559,�k�k��,8.6,��
2023/01/09,23:20,0.576,0.827,0.520,1.063,0.734,0.326,0.590,0.559,�k�k��,6.7,��
2023/01/09,23:30,0.574,0.829,0.518,1.061,0.733,0.327,0.591,0.559,�k�k��,7.7,��
2023/01/09,23:40,0.575,0.828,0.520,1.061,0.734,0.326,0.590,0.560,�k�k��,6.9,��
2023/01/09,23:50,0.573,0.828,0.519,1.065,0.733,0.327,0.591,0.559,�k�k��,7.8,��
